Regional Weather Roundup
Issued by NWS

Home | Current Version | Previous Version | Text Only | Print | Product List | Glossary On
Versions: 1 2 3 4 5 6 7 8 9 10 11 12 13 14 15 16 17 18 19 20 21 22 23 24 25 26 27 28 29 30 31 32 33 34 35 36 37 38 39 40 41 42 43 44 45 46 47 48 49 50
000
ASUS44 KFWD 062215
RWRTX
NORTH TEXAS HOURLY WEATHER ROUNDUP
NATIONAL WEATHER SERVICE FORT WORTH TX
500 PM CDT MON JUL 06 2015

NOTE: "FAIR" INDICATES FEW OR NO CLOUDS BELOW 12,000 FEET WITH NO
SIGNIFICANT WEATHER AND/OR OBSTRUCTIONS TO VISIBILITY.

TXZ118-119-062300-
DALLAS/FORT WORTH METROPLEX

CITY           SKY/WX    TMP DP  RH WIND       PRES   REMARKS
DFW AIRPORT    PTSUNNY   90  65  43 S20G31    29.93F HX  92
DALLAS LOVE    PTSUNNY   93  67  42 S24G33    29.94F HX  96
FTW MEACHAM    MOSUNNY   92  67  43 S20G29    29.92F HX  95
DAL-EXECUTIVE  MOSUNNY   90  67  46 S12G22    29.95F HX  93
FTW-ALLIANCE   PTSUNNY   92  68  45 S17G30    29.92F HX  96
FTW-NAS-JRB    MOSUNNY   94  68  42 S23G32    29.93F HX  98
FTW-SPINKS     MOSUNNY   93  64  38 S16G24    29.95F HAZE    HX  95
ARLINGTON      MOSUNNY   93  65  39 S16G26    29.94F HX  95
GRAND PRAIRIE  SUNNY     91  66  43 S18G24    29.96  HX  94
ADDISON        PTSUNNY   91  64  40 S18G24    29.96F HX  93
MESQUITE       MOSUNNY   90  66  45 S18G24      N/A  HX  92
LANCASTER      MOSUNNY   90  65  43 S14G22    29.97F HX  91
$$

TXZ091>094-102>105-117-120-121-131>134-062300-
NORTH CENTRAL TEXAS

CITY           SKY/WX    TMP DP  RH WIND       PRES   REMARKS
SHRMAN/DENISON PTSUNNY   91  69  49 S17G25    29.95F HX  95
GAINESVILLE    MOSUNNY   91  68  47 S20G26    29.94F HX  94
BRIDGEPORT     PTSUNNY   92  67  44 S14G20    29.93F HX  95
DECATUR        SUNNY     92  62  35 S18G24    29.93F HX  92
DENTON         MOSUNNY   91  68  46 S21G26    29.92F HX  95
MCKINNEY       MOSUNNY   90  68  48 S22G31    29.94F HX  94
GREENVILLE     MOSUNNY   90  66  45 S16G24    29.97F HX  92
ROCKWALL       MOSUNNY   90  69  49 S18G25    29.95F HX  94
TERRELL        MOSUNNY   90  70  51 S17G25    29.97F HX  95
WAXAHACHIE     MOSUNNY   90  69  50 S15G24    29.97F HX  94
CLEBURNE       MOSUNNY   91  68  46 S18G24    29.96F HX  95
GRANBURY         N/A     94  65  37 SE16G24   29.93F HX  96
$$

TXZ083>090-098>101-113>116-127>130-139>142-154-155-062300-
WESTERN NORTH TEXAS

CITY           SKY/WX    TMP DP  RH WIND       PRES   REMARKS
WICHITA FALLS  PTSUNNY   92  71  50 S18       29.86F HX  98
WF-KICKAPOO    MOSUNNY   94  68  42 S16G26    29.88F HX  99
VERNON         SUNNY     97  64  33 S18       29.84F HX  99
ABILENE        MOSUNNY   94  67  41 S21G29    29.90F HX  97
ABILENE-DYESS  MOSUNNY   94  71  48 S22       29.88F HX 100
BRECKENRIDGE   MOSUNNY   94  62  33 S17G23    29.90F HX  95
GRAHAM         MOSUNNY   93  68  43 SE9G18    29.87F HX  98
MINERAL WELLS  SUNNY     92  65  40 S15G26    29.90F HX  94
STEPHENVILLE   SUNNY     91  62  38 SE14G24   29.97F HX  91
COMANCHE       SUNNY     92  62  36 S15G25    29.94F HX  93
BROWNWOOD      SUNNY     93  59  31 S13G28    29.93F HX  92
COLEMAN        SUNNY     93  64  37 S16G24    29.93F HX  95
BRADY          SUNNY     91  61  35 NE13      29.95F HX  91
$$

TXZ143>147-156>162-174-175-062300-
CENTRAL TEXAS

CITY           SKY/WX    TMP DP  RH WIND       PRES   REMARKS
WACO           MOSUNNY   91  67  44 S18G28    29.95F HX  94
WACO-TSTC      SUNNY     91  66  43 S17G23    29.95F HX  94
WACO-MCGREGOR  MOSUNNY   91  68  46 S17G26    29.96F HX  95
HILLSBORO      MOSUNNY   91  67  45 S20G26    29.96F HX  93
CORSICANA      MOSUNNY   92  71  50 S18G24    29.99F HX  98
MEXIA          MOSUNNY   89  71  55 MISG      29.98S HX  95
HEARNE         MOSUNNY   91  71  51 SE18      29.99F HX  97
CAMERON        MOSUNNY   89  72  56 S14G24    29.97F HX  95
TEMPLE         MOSUNNY   90  66  45 SE25G31   29.96S HX  92
KILLEEN        SUNNY     89  67  48 S18       29.96F HX  92
KILLEEN-SKYLRK MOSUNNY   91  68  46 S18G29    29.96S HX  95
FORT HOOD      MOSUNNY   91  68  46 S17       29.95F HX  95
GATESVILLE     SUNNY     91  66  43 S15G24    29.98F HX  94
HAMILTON       MOSUNNY   91  64  40 S17G25    29.97F HX  92
LAMPASAS       MOSUNNY   92  69  47 S14G23    29.96F HX  97
$$

TXZ095>097-106>112-122>126-135>138-148>153-164>167-062300-
EAST TEXAS

CITY           SKY/WX    TMP DP  RH WIND       PRES   REMARKS
PARIS          PTSUNNY   90  72  55 S18G25    29.98F HX  96
SULPHUR SPRNGS MOSUNNY   90  68  48 S14G24    30.00F HX  93
MOUNT PLEASANT MOSUNNY   91  68  47 S18G25    30.01F HX  95
GILMER         MOSUNNY   88  70  55 S10G18    30.00F HX  93
MINEOLA        MOSUNNY   90  70  51 S15       30.00F HX  95
TYLER          FAIR      92  72  51 S16       30.00F HX  99
LONGVIEW       MOSUNNY   92  73  53 S14       30.00F HX 100
MARSHALL       MOSUNNY   94  75  55 S9        30.03F HX 105
ATHENS         PTSUNNY   90  68  48 S12G21    29.98F HX  93
PALESTINE      MOSUNNY   92  70  48 SE10G17   30.01F HX  97
JACKSONVILLE   PTSUNNY   90  70  52 S10       30.04F HX  95
HENDERSON      MOSUNNY   89  71  55 S9G17     30.02F HX  95
CENTER         FAIR      90  73  57 S7        30.01F HX  97
NACOGDOCHES    MOSUNNY   91  70  49 S9G18     30.01F HX  97
LUFKIN         MOSUNNY   94  71  47 S12       30.02F HX 101
$$

SUPPLEMENTAL OBSERVATIONS (CENTRAL)

CITY           SKY/WX    TMP DP  RH WIND       PRES   REMARKS
LAKE TEXOMA      N/A     90  66  45 S14         N/A  HX  92
CADDO GRASSLND   N/A     90  68  48 S15G23      N/A  HX  93
PAT MAYSE LAKE   N/A     86  72  62 SE15        N/A  HX  92
GREENVILLE       N/A     90  66  45 S15G24      N/A  HX  92
CEDAR HILL       N/A     91  66  43 S12G24      N/A  HX  94
LAKE LIMESTONE   N/A     91  66  43 S14         N/A  HX  94
MCGREGOR         N/A     91  68  46 S18G28      N/A  HX  95
TEMPLE           N/A     91  68  46 S17G26      N/A  HX  95
$$

SUPPLEMENTAL OBSERVATIONS (WEST)

CITY           SKY/WX    TMP DP  RH WIND       PRES   REMARKS
MILLERS CREEK    N/A     93  70  46 S18         N/A  HX  99
POSSUM KINGDOM   N/A     95  66  38 S13         N/A  HX  98
LBJ GRASSLAND    N/A     90  64  43 S13G21      N/A  HX  91
GRANBURY         N/A     93  64  38 S21G26      N/A  HX  95
COMANCHE         N/A    N/A N/A N/A S16G24      N/A
HAMBY            N/A     93  64  38 S18G26      N/A  HX  95
IVIE RESERVOIR   N/A     97  61  30 S13G22      N/A  HX  97
COLORADO BEND    N/A     91  63  38 SW14G24     N/A  HX  92
$$

SUPPLEMENTAL OBSERVATIONS (EAST)

CITY           SKY/WX    TMP DP  RH WIND       PRES   REMARKS
TEXARKANA        N/A     90  72  55 S5          N/A  HX  96
LINDEN           N/A     91  70  49 S5G15       N/A  HX  97
CADDO LAKE       N/A     91  73  55 S5G13       N/A  HX 100
GILMER           N/A     90  70  51 S10G20      N/A  HX  95
HENDERSON        N/A     90  72  55 S12G21      N/A  HX  96
LUFKIN           N/A     90  68  48 MISG        N/A  HX  93
N SABINE NF      N/A     93  73  52 MISG        N/A  HX 102
S SABINE NF      N/A     91  68  46 CALM        N/A  HX  95
$$

SUPPLEMENTAL OBSERVATIONS ARE A COLLECTION OF AUTOMATED INSTRUMENTS
THAT ARE MAINTAINED BY A VARIETY OF FEDERAL AND STATE AGENCIES.
CERTAIN ELEMENTS...SUCH AS HUMIDITY VALUES AND SUSTAINED WIND
SPEEDS...MAY BE APPROXIMATED.



USA.gov is the U.S. government's official web portal to all federal, state and local government web resources and services.